Weather History for Liberal, KS

Change the Weather History Date:

Saturday, November 26, 2011

  Actual Average Record
Temperature  
Mean Temperature 42 °F -  
Max Temperature 48 °F 56 °F 81 °F (1981)
Min Temperature 35 °F 27 °F 1 °F (1975)
Degree Days  
Heating Degree Days 24    
Moisture  
Dew Point 26 °F    
Average Humidity 55    
Maximum Humidity 87    
Minimum Humidity 34    
Precipitation  
Precipitation 0.00 in - - ()
Sea Level Pressure  
Sea Level Pressure 30.20 in    
Wind  
Wind Speed 27 mph (NNW)    
Max Wind Speed 48 mph    
Max Gust Speed 56 mph    
Visibility 10 miles    
Events      
Averages and records for this station are not official NWS values.
T = Trace of Precipitation, MM = Missing Value Source: NWS Daily Summary

Daily Weather History Graph

Daily Weather History Graph

Search for Another Location

Airport:

Trip Planner

Search our weather history database for the weather conditions in past years. The results will help you decide how hot, cold, wet, or windy it might be!

Date:

Astronomy

Nov. 26, 2011 Rise Set
Actual Time 7:33 AM CST 5:28 PM CST
Civil Twilight 7:05 AM CST 5:56 PM CST
Nautical Twilight 6:33 AM CST 6:28 PM CST
Astronomical Twilight 6:02 AM CST 6:59 PM CST
Moon 9:04 AM CST (11/26) 7:02 PM CST (11/26)
Length of Visible Light 10h 51m
Length of Day
9h 54m
Waxing Crescent, 3% of the Moon is Illuminated
Nov 26
Waxing Crescent
Dec 2
First Quarter
Dec 10
Full
Dec 17
Last Quarter
Dec 24
New

Hourly Weather History & Observations

Time (CST) Temp. Windchill Dew Point Humidity Pressure Visibility Wind Dir Wind Speed Gust Speed Precip Events Conditions
12:15 AM 46.4 °F 39.5 °F 42.8 °F 87% 29.84 in 10.0 mi NNE 17.3 mph 25.3 mph N/A   Overcast
12:35 AM 48.2 °F - 42.8 °F 82% 29.84 in 10.0 mi NE 10.4 mph - N/A   Overcast
12:55 AM 48.2 °F - 42.8 °F 82% 29.88 in 10.0 mi NNE 23.0 mph - N/A   Mostly Cloudy
1:15 AM 48.2 °F - 41.0 °F 76% 29.88 in 10.0 mi North 18.4 mph 25.3 mph N/A   Overcast
1:35 AM 48.2 °F - 39.2 °F 71% 29.88 in 10.0 mi North 13.8 mph - N/A   Overcast
1:55 AM 46.4 °F 39.8 °F 39.2 °F 76% 29.88 in 10.0 mi NNW 16.1 mph - N/A   Overcast
2:15 AM 46.4 °F 39.5 °F 39.2 °F 76% 29.89 in 10.0 mi NNW 17.3 mph - N/A   Overcast
2:35 AM 48.2 °F - 39.2 °F 71% 29.90 in 10.0 mi NW 20.7 mph 26.5 mph N/A   Overcast
2:55 AM 46.4 °F 39.0 °F 37.4 °F 71% 29.93 in 10.0 mi NW 19.6 mph 32.2 mph N/A   Overcast
3:15 AM 46.4 °F 38.7 °F 37.4 °F 71% 29.94 in 10.0 mi NW 20.7 mph 32.2 mph N/A   Overcast
3:35 AM 46.4 °F 37.4 °F 35.6 °F 66% 29.94 in 10.0 mi NNW 28.8 mph 34.5 mph N/A   Overcast
3:55 AM 44.6 °F 33.6 °F 33.8 °F 66% 29.97 in 10.0 mi NNW 38.0 mph 48.3 mph N/A   Overcast
4:15 AM 42.8 °F 31.8 °F 32.0 °F 66% 29.99 in 10.0 mi NNW 33.4 mph 39.1 mph N/A   Overcast
4:35 AM 42.8 °F 32.1 °F 30.2 °F 61% 30.01 in 10.0 mi NNW 31.1 mph 41.4 mph N/A   Mostly Cloudy
4:55 AM 42.8 °F 31.4 °F 30.2 °F 61% 30.03 in 10.0 mi NNW 35.7 mph 43.7 mph N/A   Mostly Cloudy
5:15 AM 41.0 °F 28.6 °F 30.2 °F 65% 30.05 in 10.0 mi NNW 38.0 mph 47.2 mph N/A   Overcast
5:35 AM 41.0 °F 29.5 °F 30.2 °F 65% 30.08 in 10.0 mi NNW 32.2 mph 52.9 mph N/A   Overcast
5:55 AM 39.2 °F 26.0 °F 30.2 °F 70% 30.09 in 10.0 mi NNW 39.1 mph 48.3 mph N/A   Overcast
6:15 AM 39.2 °F 25.5 °F 30.2 °F 70% 30.12 in 10.0 mi North 42.6 mph 50.6 mph N/A   Overcast
6:35 AM 39.2 °F 26.8 °F 30.2 °F 70% 30.14 in 10.0 mi NNW 33.4 mph 47.2 mph N/A   Overcast
6:55 AM 39.2 °F 26.1 °F 28.4 °F 65% 30.15 in 10.0 mi NNW 38.0 mph 44.9 mph N/A   Overcast
7:15 AM 39.2 °F 26.5 °F 28.4 °F 65% 30.17 in 10.0 mi North 35.7 mph 42.6 mph N/A   Overcast
7:35 AM 37.4 °F 24.2 °F 28.4 °F 70% 30.19 in 10.0 mi NNW 34.5 mph 44.9 mph N/A   Overcast
7:55 AM 37.4 °F 24.2 °F 28.4 °F 70% 30.22 in 10.0 mi North 34.5 mph 46.0 mph N/A   Overcast
8:15 AM 37.4 °F 25.2 °F 26.6 °F 65% 30.23 in 10.0 mi North 28.8 mph 43.7 mph N/A   Overcast
8:35 AM 37.4 °F 25.4 °F 26.6 °F 65% 30.25 in 10.0 mi NNW 27.6 mph 34.5 mph N/A   Overcast
8:55 AM 37.4 °F 25.0 °F 26.6 °F 65% 30.26 in 10.0 mi NNW 29.9 mph 39.1 mph N/A   Overcast
9:15 AM 39.2 °F 27.0 °F 26.6 °F 61% 30.27 in 10.0 mi NNW 32.2 mph 39.1 mph N/A   Overcast
9:35 AM 39.2 °F 27.2 °F 24.8 °F 56% 30.28 in 10.0 mi NNW 31.1 mph 42.6 mph N/A   Mostly Cloudy
9:55 AM 39.2 °F 26.5 °F 23.0 °F 52% 30.29 in 10.0 mi NNW 35.7 mph 47.2 mph N/A   Clear
10:15 AM 39.2 °F 26.8 °F 23.0 °F 52% 30.29 in 10.0 mi NNW 33.4 mph 43.7 mph N/A   Clear
10:35 AM 41.0 °F 29.0 °F 21.2 °F 45% 30.29 in 10.0 mi NNW 35.7 mph 44.9 mph N/A   Clear
10:55 AM 42.8 °F 30.8 °F 23.0 °F 46% 30.30 in 10.0 mi North 40.3 mph 56.4 mph N/A   Clear
11:15 AM 42.8 °F 30.7 °F 23.0 °F 46% 30.30 in 10.0 mi North 41.4 mph 52.9 mph N/A   Clear
11:35 AM 44.6 °F 32.9 °F 24.8 °F 46% 30.30 in 10.0 mi North 43.7 mph 52.9 mph N/A   Clear
11:55 AM 44.6 °F 32.4 °F 23.0 °F 43% 30.29 in 10.0 mi North 48.3 mph 52.9 mph N/A   Clear
12:15 PM 44.6 °F 33.1 °F 24.8 °F 46% 30.29 in 10.0 mi NNW 42.6 mph 51.8 mph N/A   Clear
12:35 PM 46.4 °F 35.7 °F 24.8 °F 43% 30.28 in 10.0 mi NNW 41.4 mph 51.8 mph N/A   Clear
12:55 PM 46.4 °F 35.7 °F 23.0 °F 40% 30.28 in 10.0 mi North 41.4 mph 49.5 mph N/A   Clear
1:15 PM 46.4 °F 35.6 °F 23.0 °F 40% 30.29 in 10.0 mi North 42.6 mph 55.2 mph N/A   Clear
1:35 PM 46.4 °F 35.8 °F 21.2 °F 37% 30.29 in 10.0 mi North 40.3 mph 51.8 mph N/A   Clear
1:55 PM 46.4 °F 36.1 °F 21.2 °F 37% 30.30 in 10.0 mi North 38.0 mph 50.6 mph N/A   Clear
2:15 PM 46.4 °F 35.3 °F 21.2 °F 37% 30.30 in 10.0 mi North 44.9 mph 49.5 mph N/A   Clear
2:35 PM 46.4 °F 36.1 °F 21.2 °F 37% 30.30 in 10.0 mi NNW 38.0 mph 48.3 mph N/A   Clear
2:55 PM 46.4 °F 35.8 °F 19.4 °F 34% 30.31 in 10.0 mi North 40.3 mph 48.3 mph N/A   Scattered Clouds
3:15 PM 46.4 °F 36.4 °F 19.4 °F 34% 30.32 in 10.0 mi North 35.7 mph 46.0 mph N/A   Scattered Clouds
3:35 PM 46.4 °F 36.1 °F 19.4 °F 34% 30.32 in 10.0 mi North 38.0 mph 46.0 mph N/A   Clear
3:55 PM 44.6 °F 33.9 °F 17.6 °F 34% 30.33 in 10.0 mi North 35.7 mph 42.6 mph N/A   Clear
4:15 PM 44.6 °F 34.1 °F 17.6 °F 34% 30.34 in 10.0 mi North 34.5 mph 42.6 mph N/A   Clear
4:35 PM 44.6 °F 35.1 °F 17.6 °F 34% 30.35 in 10.0 mi North 27.6 mph 41.4 mph N/A   Clear
4:55 PM 42.8 °F 33.3 °F 17.6 °F 36% 30.36 in 10.0 mi North 24.2 mph 28.8 mph N/A   Clear
5:15 PM 42.8 °F 33.5 °F 17.6 °F 36% 30.37 in 10.0 mi North 23.0 mph - N/A   Clear
5:35 PM 41.0 °F 31.4 °F 17.6 °F 39% 30.38 in 10.0 mi NNW 21.9 mph 28.8 mph N/A   Clear
6:15 PM 39.2 °F 28.5 °F 17.6 °F 42% 30.39 in 10.0 mi NNW 24.2 mph 29.9 mph N/A   Clear
6:35 PM 39.2 °F 29.6 °F 17.6 °F 42% 30.40 in 10.0 mi NNW 19.6 mph - N/A   Clear
6:55 PM 37.4 °F 28.2 °F 17.6 °F 45% 30.40 in 10.0 mi NNW 16.1 mph - N/A   Clear
7:15 PM 37.4 °F 28.9 °F 17.6 °F 45% 30.41 in 10.0 mi NNW 13.8 mph - N/A   Clear
7:35 PM 35.6 °F 25.9 °F 17.6 °F 48% 30.42 in 10.0 mi NNW 16.1 mph - N/A   Clear
7:55 PM 35.6 °F 25.5 °F 17.6 °F 48% 30.42 in 10.0 mi NNW 17.3 mph - N/A   Clear
8:15 PM 35.6 °F 25.9 °F 17.6 °F 48% 30.43 in 10.0 mi NNW 16.1 mph 23.0 mph N/A   Clear
8:35 PM 35.6 °F 24.8 °F 17.6 °F 48% 30.43 in 10.0 mi NNW 19.6 mph - N/A   Clear
8:55 PM 35.6 °F 24.8 °F 17.6 °F 48% 30.44 in 10.0 mi NNW 19.6 mph 25.3 mph N/A   Clear
9:15 PM 35.6 °F 25.5 °F 17.6 °F 48% 30.44 in 10.0 mi NNW 17.3 mph - N/A   Clear
9:35 PM 33.8 °F 23.2 °F 17.6 °F 52% 30.44 in 10.0 mi NNW 17.3 mph 23.0 mph N/A   Clear
9:55 PM 35.6 °F 23.7 °F 17.6 °F 48% 30.44 in 10.0 mi NNW 24.2 mph - N/A   Clear
10:15 PM 33.8 °F 21.6 °F 15.8 °F 48% 30.44 in 10.0 mi NNW 23.0 mph - N/A   Clear
10:35 PM 33.8 °F 22.2 °F 15.8 °F 48% 30.44 in 10.0 mi NNW 20.7 mph - N/A   Clear
10:55 PM 33.8 °F 21.6 °F 14.0 °F 44% 30.43 in 10.0 mi NNW 23.0 mph 27.6 mph N/A   Clear
11:15 PM 33.8 °F 21.9 °F 15.8 °F 48% 30.43 in 10.0 mi NNW 21.9 mph 27.6 mph N/A   Clear
11:35 PM 33.8 °F 22.5 °F 15.8 °F 48% 30.44 in 10.0 mi NNW 19.6 mph 26.5 mph N/A   Clear
11:55 PM 33.8 °F 22.2 °F 14.0 °F 44% 30.44 in 10.0 mi NNW 20.7 mph 26.5 mph N/A   Clear